Location: Haieshausen
(51.8387°N, 9.9720°E)
Time: 04:12:21
(UTC+00:00)

Cosmos 1459 Rocket - Pass Details

Date: 14 July 2020
Orbit: 938 x 999 km, 83.0° (Epoch: 10 August)

Event Time Altitude Azimuth Distance (km) Brightness Sun altitude
Exits shadow 00:52:48 19° 186° (S) 2,097 5.1 -14.1°
Maximum altitude 00:57:22 87° 100° (E) 963 4.0 -13.9°
Drops below altitude 10° 01:03:35 10° 11° (N) 2,714 7.7 -13.5°
Sets 01:06:07 0° 11° (N) 3,674 8.7 -13.3°
